This demonstration page uses our WeatherBlox Daily Observations layout. Learn more.

Hourly Observations for May 17, 2019

Temp ( °F °C ) Dew Point ( °F °C ) Humidity (%) Winds ( mph kmh ) Pressure ( in mb ) Visibility ( mi km ) Precip ( " mm )
12:54 am 00:54 Clear 75 23.9 62 16.7 64 64 S 10 17 29.62 1003 10 16.0934 0 0
1:54 am 01:54 Clear 75 23.9 61 16.1 62 62 SSW 7 11 29.63 1003 10 16.0934 0 0
2:54 am 02:54 Clear 73 22.8 62 16.7 69 69 S 9 15 29.62 1003 10 16.0934 0 0
3:54 am 03:54 Clear 69 20.6 62 16.7 78 78 S 10 17 29.61 1003 10 16.0934 0 0
4:54 am 04:54 Mostly Cloudy with Nearby Thunderstorms 71 21.7 63 17.2 76 76 S 9 15 29.59 1002 5 8.0467 0 0.0254
5:54 am 05:54 Partly Cloudy with Nearby Thunderstorms 70 21.1 64 17.8 82 82 S 9 15 29.59 1002 10 16.0934 0.01 0.254
6:02 am 06:02 Mostly Clear 70 21.1 63 17.2 79 79 S 13 20 29.59 1002 10 16.0934 0 0
6:27 am 06:27 Sunny with Nearby Thunderstorms 69 20.6 64 17.8 84 84 S 8 13 29.6 1003 10 16.0934 0 0
6:42 am 06:42 Sunny 69 20.6 64 17.8 84 84 S 6 9 29.61 1003 10 16.0934 0 0
6:54 am 06:54 Sunny 69 20.6 64 17.8 84 84 SSE 3 6 29.62 1003 10 16.0934 0 0
7:54 am 07:54 Sunny 71 21.7 64 17.8 79 79 S 7 11 29.62 1003 10 16.0934 0 0
8:54 am 08:54 Sunny 73 22.8 65 18.3 76 76 S 9 15 29.63 1004 10 16.0934 0 0
9:54 am 09:54 Sunny 76 24.4 66 18.9 72 72 S 14 22 29.62 1003 10 16.0934 0 0
10:54 am 10:54 Sunny 73 22.8 63 17.2 71 71 S 20 31 29.62 1003 10 16.0934 0 0
11:54 am 11:54 Sunny 80 26.7 66 18.9 62 62 S 18 30 29.6 1002 10 16.0934 0 0
12:54 pm 12:54 Sunny 84 28.9 66 18.9 55 55 S 21 33 29.58 1002 10 16.0934 0 0
1:54 pm 13:54 Sunny 86 30 64 17.8 48 48 S 20 31 29.55 1001 10 16.0934 0 0
2:54 pm 14:54 Sunny 87 30.6 64 17.8 46 46 S 28 44 29.54 1001 10 16.0934 0 0
3:54 pm 15:54 Mostly Sunny 86 30 64 17.8 48 48 S 29 46 29.52 1000 10 16.0934 0 0
4:54 pm 16:54 Sunny 86 30 62 16.7 45 45 S 30 48 29.49 999 10 16.0934 0 0
5:54 pm 17:54 Sunny 83 28.3 61 16.1 48 48 S 26 43 29.51 999 10 16.0934 0 0
6:54 pm 18:54 Mostly Sunny 82 27.8 62 16.7 51 51 S 22 35 29.53 1000 10 16.0934 0 0
7:54 pm 19:54 Sunny 80 26.7 63 17.2 56 56 S 17 28 29.52 1000 10 16.0934 0 0
8:54 pm 20:54 Partly Cloudy 78 25.6 62 16.7 58 58 SSE 16 26 29.49 999 10 16.0934 0 0.0254
9:54 pm 21:54 Mostly Clear 77 25 62 16.7 60 60 SSE 18 30 29.52 1000 10 16.0934 0 0
10:54 pm 22:54 Clear 76 24.4 62 16.7 62 62 SSE 21 33 29.51 999 10 16.0934 0 0
11:54 pm 23:54 Clear 75 23.9 62 16.7 64 64 S 26 43 29.5 999 10 16.0934 0 0

Powered by AerisWeather